Weather History for Port Aransas, TX

Change the Weather History Date:

Monday, May 27, 2013

  Actual Average (KCRP) Record (KCRP)
Temperature  
Mean Temperature 80 °F 80 °F  
Max Temperature 85 °F 89 °F 99 °F (1973)
Min Temperature 77 °F 72 °F 60 °F (1901)
Degree Days  
Heating Degree Days 0 0  
Month to date heating degree days 0  
Since 1 July heating degree days 898  
Cooling Degree Days 16 15  
Month to date cooling degree days 351  
Year to date cooling degree days 779  
Growing Degree Days 30 (Base 50)    
Moisture  
Dew Point 74 °F    
Average Humidity 81    
Maximum Humidity 90    
Minimum Humidity 69    
Precipitation  
Precipitation 0.00 in 0.12 in 1.74 in (1957)
Month to date precipitation 2.64  
Year to date precipitation 9.84  
Snow  
Snow 0.00 in - - ()
Month to date snowfall  
Since 1 July snowfall  
Snow Depth -    
Sea Level Pressure  
Sea Level Pressure 29.96 in    
Wind  
Wind Speed 15 mph (SSE)    
Max Wind Speed 21 mph    
Max Gust Speed 29 mph    
Visibility 10 miles    
Events      
T = Trace of Precipitation, MM = Missing Value Source: NWS Daily Summary

Daily Weather History Graph

Daily Weather History Graph

Search for Another Location

Airport:

Trip Planner

Search our weather history database for the weather conditions in past years. The results will help you decide how hot, cold, wet, or windy it might be!

Date:

Astronomy

May. 27, 2013 Rise Set
Actual Time 6:33 AM CDT 8:17 PM CDT
Civil Twilight 6:07 AM CDT 8:43 PM CDT
Nautical Twilight 5:36 AM CDT 9:15 PM CDT
Astronomical Twilight 5:03 AM CDT 9:48 PM CDT
Moon 11:03 PM CDT (5/27) 9:09 AM CDT (5/27)
Length of Visible Light 14h 36m
Length of Day
13h 43m
Waning Gibbous, 91% of the Moon is Illuminated
May 27
Waning Gibbous
May 31
Last Quarter
Jun 8
New
Jun 16
First Quarter
Jun 23
Full

Hourly Weather History & Observations

Time (CDT) Temp. Heat Index Dew Point Humidity Pressure Visibility Wind Dir Wind Speed Gust Speed Precip Events Conditions
12:15 AM 77.2 °F - 72.3 °F 85% 30.02 in 10.0 mi SSE 13.8 mph 18.4 mph N/A   Mostly Cloudy
12:35 AM 77.2 °F - 72.0 °F 84% 30.01 in 10.0 mi SSE 13.8 mph 19.6 mph N/A   Scattered Clouds
12:55 AM 77.0 °F - 72.0 °F 84% 30.01 in 10.0 mi SSE 12.7 mph 19.6 mph N/A   Scattered Clouds
1:15 AM 77.4 °F - 72.0 °F 83% 30.01 in 10.0 mi SSE 16.1 mph 19.6 mph N/A   Scattered Clouds
1:35 AM 77.4 °F - 72.1 °F 84% 30.01 in 10.0 mi South 15.0 mph 20.7 mph N/A   Scattered Clouds
1:55 AM 77.4 °F - 72.1 °F 84% 30.00 in 10.0 mi SSE 16.1 mph 19.6 mph N/A   Mostly Cloudy
2:15 AM 77.2 °F - 72.0 °F 84% 29.99 in 10.0 mi SSE 15.0 mph 19.6 mph N/A   Mostly Cloudy
2:35 AM 77.4 °F - 72.7 °F 85% 29.99 in 10.0 mi SSE 15.0 mph 20.7 mph N/A   Mostly Cloudy
2:55 AM 77.2 °F - 72.9 °F 86% 29.98 in 10.0 mi SSE 12.7 mph 18.4 mph N/A   Mostly Cloudy
3:15 AM 77.2 °F - 73.0 °F 87% 29.98 in 10.0 mi SSE 12.7 mph - N/A   Mostly Cloudy
3:35 AM 77.2 °F - 73.2 °F 88% 29.98 in 10.0 mi SSE 15.0 mph 18.4 mph N/A   Overcast
3:55 AM 77.2 °F - 73.4 °F 88% 29.97 in 10.0 mi SSE 13.8 mph 18.4 mph N/A   Mostly Cloudy
4:15 AM 77.0 °F - 73.4 °F 89% 29.97 in 10.0 mi SSE 13.8 mph 18.4 mph N/A   Scattered Clouds
4:35 AM 77.0 °F - 73.4 °F 89% 29.97 in 10.0 mi SSE 13.8 mph 17.3 mph N/A   Scattered Clouds
4:55 AM 77.2 °F - 73.6 °F 89% 29.97 in 10.0 mi SSE 15.0 mph 19.6 mph N/A   Overcast
5:15 AM 77.0 °F - 73.6 °F 89% 29.97 in 10.0 mi SSE 11.5 mph 16.1 mph N/A   Mostly Cloudy
5:35 AM 77.2 °F - 73.8 °F 89% 29.97 in 10.0 mi SSE 11.5 mph - N/A   Overcast
5:55 AM 77.2 °F - 73.8 °F 89% 29.97 in 10.0 mi SSE 11.5 mph 17.3 mph N/A   Overcast
6:15 AM 77.4 °F - 73.9 °F 89% 29.97 in 10.0 mi SSE 15.0 mph 19.6 mph N/A   Overcast
6:35 AM 77.4 °F - 74.3 °F 90% 29.97 in 7.0 mi SSE 12.7 mph 17.3 mph N/A   Overcast
6:55 AM 77.2 °F - 73.8 °F 89% 29.96 in 7.0 mi SSE 12.7 mph 19.6 mph N/A   Mostly Cloudy
7:15 AM 77.5 °F - 73.8 °F 88% 29.97 in 7.0 mi SSE 13.8 mph 18.4 mph N/A   Mostly Cloudy
7:35 AM 77.9 °F - 73.8 °F 87% 29.97 in 10.0 mi SSE 12.7 mph 21.9 mph N/A   Mostly Cloudy
7:55 AM 78.4 °F - 74.3 °F 87% 29.97 in 10.0 mi SSE 17.3 mph 21.9 mph N/A   Mostly Cloudy
8:15 AM 79.2 °F - 74.5 °F 86% 29.98 in 7.0 mi SSE 12.7 mph 19.6 mph N/A   Mostly Cloudy
8:35 AM 79.7 °F - 74.3 °F 83% 29.98 in 10.0 mi SSE 17.3 mph 20.7 mph N/A   Mostly Cloudy
8:55 AM 80.4 °F 85.5 °F 74.5 °F 82% 29.99 in 10.0 mi SSE 17.3 mph 20.7 mph N/A   Mostly Cloudy
9:15 AM 81.0 °F 86.5 °F 74.5 °F 81% 29.99 in 10.0 mi SSE 16.1 mph 23.0 mph N/A   Mostly Cloudy
9:35 AM 81.1 °F 87.0 °F 74.7 °F 81% 30.00 in 10.0 mi SSE 15.0 mph 21.9 mph N/A   Overcast
9:55 AM 81.7 °F 87.8 °F 74.5 °F 79% 30.00 in 10.0 mi SSE 15.0 mph 20.7 mph N/A   Overcast
10:15 AM 82.6 °F 89.4 °F 74.8 °F 77% 30.00 in 10.0 mi SSE 17.3 mph 21.9 mph N/A   Overcast
10:35 AM 81.5 °F 87.4 °F 74.3 °F 79% 30.00 in 10.0 mi SSE 16.1 mph 23.0 mph N/A   Overcast
10:55 AM 82.0 °F 87.7 °F 73.6 °F 75% 30.00 in 10.0 mi SSE 15.0 mph 21.9 mph N/A   Mostly Cloudy
11:15 AM 83.7 °F 90.7 °F 74.3 °F 73% 30.00 in 10.0 mi SSE 15.0 mph 21.9 mph N/A   Mostly Cloudy
11:35 AM 83.3 °F 89.9 °F 73.9 °F 73% 30.00 in 10.0 mi SSE 19.6 mph 24.2 mph N/A   Scattered Clouds
11:55 AM 84.2 °F 91.6 °F 74.1 °F 72% 30.00 in 10.0 mi SSE 18.4 mph 24.2 mph N/A   Scattered Clouds
12:15 PM 84.0 °F 91.5 °F 74.5 °F 73% 30.00 in 10.0 mi SSE 16.1 mph 25.3 mph N/A   Scattered Clouds
12:35 PM 84.4 °F 92.0 °F 74.5 °F 72% 30.00 in 10.0 mi SSE 19.6 mph 25.3 mph N/A   Clear
12:55 PM 84.4 °F 92.0 °F 74.3 °F 72% 29.99 in 10.0 mi SSE 18.4 mph 24.2 mph N/A   Scattered Clouds
1:15 PM 84.7 °F 92.5 °F 74.5 °F 71% 29.99 in 10.0 mi SSE 19.6 mph 27.6 mph N/A   Scattered Clouds
1:35 PM 84.7 °F 91.7 °F 73.8 °F 69% 29.98 in 10.0 mi SSE 18.4 mph 26.5 mph N/A   Scattered Clouds
1:55 PM 84.9 °F 92.1 °F 73.9 °F 69% 29.97 in 10.0 mi SSE 19.6 mph 25.3 mph N/A   Scattered Clouds
2:15 PM 84.6 °F 91.7 °F 73.9 °F 70% 29.97 in 10.0 mi SSE 17.3 mph 27.6 mph N/A   Scattered Clouds
2:35 PM 84.7 °F 92.1 °F 73.9 °F 70% 29.96 in 10.0 mi SSE 17.3 mph 25.3 mph N/A   Scattered Clouds
2:55 PM 84.2 °F 90.9 °F 73.6 °F 70% 29.95 in 10.0 mi SSE 16.1 mph 25.3 mph N/A   Scattered Clouds
3:15 PM 84.6 °F 92.1 °F 74.1 °F 71% 29.95 in 10.0 mi SSE 19.6 mph 23.0 mph N/A   Scattered Clouds
3:35 PM 83.7 °F 90.4 °F 73.6 °F 72% 29.94 in 10.0 mi SSE 16.1 mph 25.3 mph N/A   Scattered Clouds
3:55 PM 83.8 °F 90.4 °F 73.6 °F 71% 29.93 in 10.0 mi SSE 17.3 mph 25.3 mph N/A   Scattered Clouds
4:15 PM 84.0 °F 90.8 °F 73.6 °F 71% 29.93 in 10.0 mi SSE 17.3 mph 23.0 mph N/A   Scattered Clouds
4:35 PM 83.3 °F 89.9 °F 73.8 °F 73% 29.92 in 10.0 mi SSE 18.4 mph 23.0 mph N/A   Scattered Clouds
4:55 PM 83.3 °F 89.9 °F 73.9 °F 73% 29.91 in 10.0 mi SSE 17.3 mph 21.9 mph N/A   Scattered Clouds
5:15 PM 82.6 °F 88.8 °F 74.1 °F 75% 29.91 in 10.0 mi SSE 13.8 mph 23.0 mph N/A   Scattered Clouds
5:35 PM 82.4 °F 88.7 °F 74.1 °F 76% 29.90 in 10.0 mi SSE 17.3 mph 23.0 mph N/A   Mostly Cloudy
5:55 PM 81.7 °F 87.3 °F 73.8 °F 77% 29.90 in 10.0 mi SSE 15.0 mph 21.9 mph N/A   Mostly Cloudy
6:15 PM 81.1 °F 86.6 °F 73.9 °F 79% 29.89 in 10.0 mi SE 11.5 mph 23.0 mph N/A   Overcast
6:35 PM 80.8 °F 85.9 °F 73.9 °F 80% 29.89 in 10.0 mi SSE 16.1 mph 23.0 mph N/A   Overcast
6:55 PM 80.2 °F 84.9 °F 73.8 °F 81% 29.89 in 10.0 mi SE 18.4 mph 23.0 mph N/A   Overcast
7:15 PM 79.7 °F - 73.6 °F 81% 29.89 in 10.0 mi SE 17.3 mph 25.3 mph N/A   Overcast
7:35 PM 79.3 °F - 73.6 °F 82% 29.89 in 10.0 mi SE 20.7 mph 24.2 mph N/A   Overcast
7:55 PM 78.8 °F - 73.2 °F 83% 29.89 in 10.0 mi SSE 17.3 mph 24.2 mph N/A   Overcast
8:15 PM 78.8 °F - 73.0 °F 82% 29.89 in 10.0 mi SE 18.4 mph 24.2 mph N/A   Mostly Cloudy
8:35 PM 78.4 °F - 73.0 °F 83% 29.89 in 10.0 mi SE 17.3 mph 25.3 mph N/A   Mostly Cloudy
8:55 PM 78.3 °F - 73.0 °F 84% 29.89 in 10.0 mi SSE 19.6 mph 25.3 mph N/A   Mostly Cloudy
9:15 PM 78.1 °F - 73.4 °F 85% 29.89 in 10.0 mi SSE 16.1 mph 24.2 mph N/A   Mostly Cloudy
9:35 PM 78.1 °F - 73.4 °F 85% 29.90 in 10.0 mi SE 17.3 mph 24.2 mph N/A   Mostly Cloudy
9:55 PM 78.1 °F - 73.4 °F 85% 29.91 in 10.0 mi SSE 17.3 mph 28.8 mph N/A   Mostly Cloudy
10:15 PM 78.3 °F - 73.4 °F 85% 29.91 in 10.0 mi SSE 19.6 mph 24.2 mph N/A   Overcast
10:35 PM 78.1 °F - 73.4 °F 85% 29.92 in 10.0 mi SSE 15.0 mph 24.2 mph N/A   Mostly Cloudy
10:55 PM 78.1 °F - 73.4 °F 85% 29.92 in 10.0 mi SE 15.0 mph 21.9 mph N/A   Mostly Cloudy
11:15 PM 78.3 °F - 73.2 °F 84% 29.93 in 10.0 mi SE 16.1 mph 24.2 mph N/A   Scattered Clouds
11:35 PM 78.1 °F - 73.4 °F 85% 29.93 in 10.0 mi SE 17.3 mph 23.0 mph N/A   Mostly Cloudy
11:55 PM 78.3 °F - 73.6 °F 85% 29.92 in 10.0 mi SE 13.8 mph 24.2 mph N/A   Mostly Cloudy